This is the latest recevied weather packets stored in our database for station/object UB2FAY-13. If no packets are shown the sender has not sent any weather packets the latest 10 day(s).
| Time | Temp. | Humidity | Pressure | Rain* | Wind** | Luminosity | Snow |
|---|---|---|---|---|---|---|---|
| 1777606022 | 10.56° C | 69% | 1026.6 hPa | 0 mm | - | - | - |
| 1777605418 | 10.56° C | 69% | 1026.6 hPa | 0 mm | - | - | - |
| 1777604890 | 10.56° C | 69% | 1026.6 hPa | 0 mm | - | - | - |
| 1777604818 | 10.56° C | 69% | 1026.6 hPa | 0 mm | - | - | - |
| 1777604218 | 10.56° C | 68% | 1026.4 hPa | 0 mm | - | - | - |
| 1777603618 | 10.56° C | 69% | 1026.5 hPa | 0 mm | - | - | - |
| 1777603021 | 10.56° C | 68% | 1026.8 hPa | 0 mm | - | - | - |
| 1777602418 | 11.11° C | 69% | 1026.7 hPa | 0 mm | - | - | - |
| 1777601818 | 11.11° C | 68% | 1026.6 hPa | 0 mm | - | - | - |
| 1777601218 | 11.11° C | 68% | 1026.7 hPa | 0 mm | - | - | - |
| 1777600618 | 11.11° C | 68% | 1026.7 hPa | 0 mm | - | - | - |
| 1777600018 | 11.11° C | 69% | 1026.9 hPa | 0 mm | - | - | - |
| 1777599419 | 11.11° C | 69% | 1026.8 hPa | 0 mm | - | - | - |
| 1777598818 | 11.11° C | 70% | 1026.9 hPa | 0 mm | - | - | - |
| 1777598218 | 11.11° C | 70% | 1026.8 hPa | 0 mm | - | - | - |
| 1777597618 | 11.11° C | 71% | 1026.8 hPa | 0 mm | - | - | - |
| 1777597018 | 10.56° C | 72% | 1026.8 hPa | 0 mm | - | - | - |
| 1777596418 | 9.44° C | 71% | 1026.9 hPa | 0 mm | - | - | - |
| 1777595818 | 10.56° C | 70% | 1026.9 hPa | 0 mm | - | - | - |
| 1777595218 | 10.56° C | 70% | 1026.9 hPa | 0 mm | - | - | - |
| 1777594618 | 10.56° C | 72% | 1026.8 hPa | 0 mm | - | - | - |
| 1777594057 | 10.56° C | 73% | 1026.7 hPa | 0 mm | - | - | - |
| 1777594018 | 10.56° C | 73% | 1026.7 hPa | 0 mm | - | - | - |
| 1777593418 | 8.89° C | 73% | 1026.7 hPa | 0 mm | - | - | - |
| 1777592898 | 8.89° C | 70% | 1026.8 hPa | 0 mm | - | - | - |
* Rain latest hour (hover to see other rain measurements)
** Current wind speed in m/s (hover to see current wind gust speed)